CZ-4C DEB, 43266

Orbit data source: Space-Track

CZ-4C DEB, 43266 is space debris in SSO originally from a launch on Sat, 31 Mar 2018 UTC launched from the Taiyaun Space Center, China (TSC). Debris objects in space refer to the collection of defunct objects orbiting the Earth. Examples of debris include non-operational satellites, rocket bodies, and fragments generated from explosions, collisions, or faulty payload assembly.

Loading next visibility...
Identifier
43266, 2018-031H
Orbit
SSO
Country
Flag of CNCN / PRC
Related business
Manufacturer
Unknown
Mission
Spacecraft
Bus & Motor
Unknown
Mass
Unknown
Launch date (UTC)
2018-03-31 (7 years ago)
Launch vehicle
Unknown
Launch site
Taiyaun Space Center, China (TSC)
Object type
Payload
Rocket body
Debris
Shape & HBR
Unknown
Radar Cross Section
Small (<0.1 m²)

Expand to show TLE details & history
Last TLE update: 13 hours ago

TLE from 13 hours ago
0 CZ-4C DEB
1 43266U 18031H   25260.97141164  .00009744  00000-0  62112-3 0  9991
2 43266  98.1540  58.9271 0023180 136.1416 224.1657 15.08735510405616
Epoch: 2025-09-17T23:18Z
TLE epoch observation values (Epoch: 2025-09-17T23:18:49.965Z)
Latitude
0.00002°
Longitude
72.0792°
Altitude
554.639 km
Speed
7.578 km/s
True Right ascension
03h 55m 42s
True Declination
0° 00' 00"
Sunlit
Object was in full shadow at epoch
Visualization orbit readout
Latitude
Unknown
Longitude
Unknown
Altitude
Unknown
Speed
Unknown
Apparent Right ascension
Unknown
Apparent Declination
Unknown
Sunlit
N/A
Visualization observer readout
Local Sidereal Time
05:38:56
Azimuth
Unknown
Elevation
Unknown
Doppler factor
Unknown
Orbital elements
Apogee altitude
553.107 km
Perigee altitude
521.048 km
Semi-major axis
6,915.214 km
Eccentricity
0.00232
Inclination
98.154°
RAAN
58.9271°
Arg. of periapsis
136.1416°
True anomaly
223.98101°
Mean anomaly
224.1657°
Eccentric anomaly
224.07332°
Mean motion
3.77429 °/min
Orbital period
95.38 mins
BSTAR
0.00062112
Loading maneuver chart data...
Computing Atmospheric mass density...
Loading historical data...
Loading historical data...
Loading historical data...
Loading historical data...
Loading historical data...
Loading historical data...
Loading historical data...

Documentation

Showing up to 5 results
|